Location: Central Falls
(41.8900°N, 71.3929°W)
Time: 22:28:31
(UTC+00:00)

Courier 1B Rocket - Pass Details

Date: 05 December 2023
Orbit: 920 x 1202 km, 28.2° (Epoch: 04 March)

Event Time Altitude Azimuth Distance (km) Brightness Sun altitude
Rises 15:50:23 0° 214° (SW) 3,772 8.7 24.9°
Reaches altitude 10° 15:54:36 10° 190° (S) 2,758 8.8 25.0°
Maximum altitude 15:57:50 14° 161° (SSE) 2,433 9.1 25.1°
Drops below altitude 10° 16:00:58 10° 131° (SE) 2,678 8.2 25.2°
Sets 16:04:57 0° 107° (ESE) 3,585 8.3 25.3°
